Tampa, FL

10:21 AM EDT on June 29, 2017 (GMT -0400)
Tampa International

Weather History for KTPA - January, 2012

Change the Weather History Date:

Tuesday, January 3, 2012

  Actual Average Record
Temperature  
Mean Temperature 48 °F 61 °F  
Max Temperature 57 °F 70 °F 83 °F (1973)
Min Temperature 38 °F 52 °F 26 °F (1928)
Degree Days  
Heating Degree Days 17 6  
Month to date heating degree days 22 18  
Since 1 July heating degree days 77 201  
Cooling Degree Days 0 2  
Month to date cooling degree days 1 6  
Year to date cooling degree days 1 6  
Moisture  
Dew Point 25 °F    
Average Humidity 45    
Maximum Humidity 54    
Minimum Humidity 35    
Precipitation  
Precipitation 0.00 in 0.07 in 1.06 in (1977)
Month to date precipitation T 0.20  
Year to date precipitation T 0.20  
Sea Level Pressure  
Sea Level Pressure 30.36 in    
Wind  
Wind Speed 13 mph (NNW)    
Max Wind Speed 25 mph    
Max Gust Speed 35 mph    
Visibility 10 miles    
Events      
T = Trace of Precipitation, MM = Missing Value Source: NWS Daily Summary

Daily Weather History Graph

Daily Weather History Graph

Search for Another Location

Airport or City:

Trip Planner

Search our weather history database for the weather conditions in past years. The results will help you decide how hot, cold, wet, or windy it might be!

Date:

Astronomy

Jan. 03, 2012 Rise Set
Actual Time 7:21 AM EST 5:47 PM EST
Civil Twilight 6:56 AM EST 6:12 PM EST
Nautical Twilight 6:27 AM EST 6:41 PM EST
Astronomical Twilight 5:58 AM EST 7:10 PM EST
Moon 1:27 PM EST (1/3) 2:20 AM EST (1/3)
Length of Visible Light 11h 16m
Length of Day
10h 25m
Waxing Gibbous, 72% of the Moon is Illuminated
Jan 3
Waxing Gibbous
Jan 9
Full
Jan 16
Last Quarter
Jan 23
New
Jan 30
First Quarter

Hourly Weather History & Observations

Time (EST) Temp. Windchill Dew Point Humidity Pressure Visibility Wind Dir Wind Speed Gust Speed Precip Events Conditions
12:53 AM 55.9 °F - 30.9 °F 39% 30.24 in 10.0 mi NW 11.5 mph 19.6 mph N/A   Scattered Clouds
1:53 AM 55.9 °F - 28.0 °F 34% 30.24 in 10.0 mi NW 13.8 mph 25.3 mph N/A   Scattered Clouds
2:53 AM 57.0 °F - 34.0 °F 42% 30.22 in 10.0 mi WNW 13.8 mph 24.2 mph N/A   Mostly Cloudy
3:53 AM 55.9 °F - 34.0 °F 44% 30.24 in 10.0 mi WNW 20.7 mph 31.1 mph N/A   Scattered Clouds
4:53 AM 52.0 °F - 30.9 °F 45% 30.26 in 10.0 mi NNW 21.9 mph 31.1 mph N/A   Scattered Clouds
5:53 AM 48.0 °F - 28.0 °F 46% 30.31 in 10.0 mi NNW 20.7 mph 29.9 mph N/A   Scattered Clouds
6:53 AM 46.0 °F 39.6 °F 26.1 °F 46% 30.34 in 10.0 mi NNW 15.0 mph 27.6 mph N/A   Scattered Clouds
7:53 AM 44.1 °F 36.5 °F 24.1 °F 45% 30.39 in 10.0 mi North 17.3 mph 25.3 mph N/A   Scattered Clouds
8:53 AM 44.1 °F 37.1 °F 21.0 °F 40% 30.42 in 10.0 mi North 15.0 mph 19.6 mph N/A   Partly Cloudy
9:53 AM 45.0 °F 39.3 °F 21.9 °F 40% 30.43 in 10.0 mi North 11.5 mph 23.0 mph N/A   Scattered Clouds
10:53 AM 46.9 °F - 23.0 °F 39% 30.43 in 10.0 mi North 18.4 mph 25.3 mph N/A   Partly Cloudy
11:53 AM 46.9 °F - 23.0 °F 39% 30.40 in 10.0 mi North 17.3 mph 28.8 mph N/A   Partly Cloudy
12:53 PM 48.0 °F - 24.1 °F 39% 30.37 in 10.0 mi NW 17.3 mph 25.3 mph N/A   Partly Cloudy
1:53 PM 48.0 °F - 25.0 °F 41% 30.35 in 10.0 mi North 17.3 mph - N/A   Partly Cloudy
2:53 PM 48.0 °F - 26.1 °F 42% 30.34 in 10.0 mi North 13.8 mph - N/A   Partly Cloudy
3:53 PM 46.9 °F - 24.1 °F 41% 30.35 in 10.0 mi NNW 10.4 mph - N/A   Partly Cloudy
4:53 PM 46.0 °F 40.2 °F 24.1 °F 42% 30.36 in 10.0 mi NNW 12.7 mph - N/A   Partly Cloudy
5:53 PM 43.0 °F 37.7 °F 21.9 °F 43% 30.37 in 10.0 mi NNW 9.2 mph - N/A   Partly Cloudy
6:53 PM 41.0 °F 37.1 °F 21.9 °F 47% 30.38 in 10.0 mi North 5.8 mph - N/A   Clear
7:53 PM 39.0 °F 35.7 °F 24.1 °F 55% 30.40 in 10.0 mi North 4.6 mph - N/A   Clear
8:53 PM 39.9 °F 37.8 °F 24.1 °F 53% 30.41 in 10.0 mi North 3.5 mph - N/A   Clear
9:53 PM 39.0 °F 35.7 °F 24.1 °F 55% 30.42 in 10.0 mi North 4.6 mph - N/A   Clear
10:53 PM 39.9 °F 36.7 °F 24.1 °F 53% 30.43 in 10.0 mi NNE 4.6 mph - N/A   Clear
11:53 PM 39.9 °F 36.7 °F 21.0 °F 47% 30.43 in 10.0 mi NNE 4.6 mph - N/A   Clear